This demonstration page uses our WeatherBlox Daily Observations layout. Learn more.

Left ArrowRight Arrow

44.8408, -93.29828

Hourly Observations for June 21, 2017

Temp ( °F °C ) Dew Point ( °F °C ) Humidity (%) Winds ( mph kmh ) Pressure ( in mb ) Visibility ( mi km ) Precip ( " mm )
12:53 am 00:53 Clear 63 17.2 53 11.7 70 70 Calm 29.94 1014 10 16 0.00 0.00
1:53 am 01:53 Clear 62 16.7 51 10.6 67 67 Calm 29.94 1014 10 16 0.00 0.00
2:53 am 02:53 Clear 60 15.6 52 11.1 75 75 ENE 5 7 29.93 1014 10 16 0.00 0.00
3:53 am 03:53 Clear 60 15.6 52 11.1 75 75 E 3 6 29.94 1014 10 16 0.00 0.00
4:53 am 04:53 Mostly Cloudy 61 16.1 52 11.1 72 72 ENE 3 6 29.93 1014 10 16 0.00 0.00
5:53 am 05:53 Mostly Sunny 60 15.6 51 10.6 72 72 E 6 9 29.91 1013 10 16 0.00 0.00
6:53 am 06:53 Mostly Cloudy 63 17.2 54 12.2 73 73 SSE 7 11 29.92 1013 10 16 0.00 0.00
7:53 am 07:53 Mostly Cloudy 67 19.4 54 12.2 63 63 SE 6 9 29.90 1013 10 16 0.00 0.00
8:53 am 08:53 Mostly Cloudy 69 20.6 52 11.1 55 55 S 6 9 29.91 1013 10 16 0.00 0.00
9:53 am 09:53 Mostly Cloudy 70 21.1 51 10.6 51 51 S 12 19 29.92 1013 10 16 0.00 0.00
10:53 am 10:53 Partly Cloudy 74 23.3 52 11.1 46 46 SSE 14 22 29.88 1012 10 16 0.00 0.00
11:53 am 11:53 Partly Cloudy 76 24.4 52 11.1 43 43 SSE 12 19 29.86 1011 10 16 0.00 0.00
12:53 pm 12:53 Mostly Sunny 77 25 52 11.1 42 42 SSE 16 26 29.83 1010 10 16 0.00 0.00
1:53 pm 13:53 Mostly Sunny 78 25.6 52 11.1 40 40 S 12 19 29.80 1009 10 16 0.00 0.00
2:53 pm 14:53 Partly Cloudy 80 26.7 54 12.2 41 41 SSE 17 28 29.80 1009 10 16 0.00 0.00
3:53 pm 15:53 Mostly Sunny 81 27.2 54 12.2 39 39 SSE 14 22 29.78 1008 10 16 0.00 0.00
4:53 pm 16:53 Mostly Sunny 80 26.7 57 13.9 45 45 S 15 24 29.76 1008 10 16 0.00 0.00
5:53 pm 17:53 Mostly Sunny 81 27.2 57 13.9 44 44 S 16 26 29.75 1007 10 16 0.00 0.00
6:53 pm 18:53 Partly Cloudy 79 26.1 59 15 50 50 SSE 15 24 29.73 1007 10 16 0.00 0.00
7:53 pm 19:53 Mostly Sunny 78 25.6 60 15.6 54 54 S 14 22 29.71 1006 10 16 0.00 0.00
8:53 pm 20:53 Mostly Cloudy 76 24.4 61 16.1 60 60 SSE 8 13 29.72 1006 10 16 0.00 0.00
9:53 pm 21:53 Mostly Cloudy 74 23.3 61 16.1 64 64 SSE 10 17 29.71 1006 10 16 0.00 0.00
10:53 pm 22:53 Mostly Cloudy 73 22.8 61 16.1 66 66 SE 6 9 29.72 1006 10 16 0.00 0.00
11:53 pm 23:53 Cloudy 73 22.8 61 16.1 66 66 ESE 6 9 29.71 1006 10 16 0.00 0.00

Powered by AerisWeather